Weather History for KEVM - July, 2013

Change the Weather History Date:

Monday, July 29, 2013

  Actual Average Record
Temperature  
Mean Temperature 55 °F -  
Max Temperature 73 °F 76 °F 91 °F (1987)
Min Temperature 37 °F 52 °F 37 °F (2005)
Degree Days  
Heating Degree Days 10    
Growing Degree Days 5 (Base 50)    
Moisture  
Dew Point 48 °F    
Average Humidity 74    
Maximum Humidity 100    
Minimum Humidity 41    
Precipitation  
Precipitation 0.00 in - - ()
Sea Level Pressure  
Sea Level Pressure 30.10 in    
Wind  
Wind Speed 1 mph (SSW)    
Max Wind Speed 10 mph    
Max Gust Speed -    
Visibility 9 miles    
Events Fog    
Averages and records for this station are not official NWS values.
T = Trace of Precipitation, MM = Missing Value Source: NWS Daily Summary

Daily Weather History Graph

Daily Weather History Graph

Search for Another Location

Airport or City:

Trip Planner

Search our weather history database for the weather conditions in past years. The results will help you decide how hot, cold, wet, or windy it might be!

Date:

Astronomy

Jul. 29, 2013 Rise Set
Actual Time 5:44 AM CDT 8:47 PM CDT
Civil Twilight 5:08 AM CDT 9:23 PM CDT
Nautical Twilight 4:21 AM CDT 10:10 PM CDT
Astronomical Twilight 3:23 AM CDT 11:07 PM CDT
Moon No Moon Rise 2:03 PM CDT (7/29)
Length of Visible Light 16h 15m
Length of Day
15h 02m
Waning Gibbous, 50% of the Moon is Illuminated
Jul 29
Waning Gibbous
Jul 29
Last Quarter
Aug 6
New
Aug 14
First Quarter
Aug 20
Full

Hourly Weather History & Observations

Time (CDT) Temp. Dew Point Humidity Pressure Visibility Wind Dir Wind Speed Gust Speed Precip Events Conditions
12:08 AM 44.6 °F 42.8 °F 93% 30.06 in 10.0 mi Calm Calm - N/A   Clear
12:28 AM 44.6 °F 42.8 °F 93% 30.06 in 10.0 mi Calm Calm - N/A   Clear
12:48 AM 42.8 °F 42.8 °F 100% 30.06 in 10.0 mi Calm Calm - N/A   Clear
1:08 AM 42.8 °F 42.8 °F 100% 30.07 in 10.0 mi Calm Calm - N/A   Clear
1:28 AM 42.8 °F 41.0 °F 93% 30.07 in 5.0 mi Calm Calm - N/A   Clear
1:48 AM 42.8 °F 41.0 °F 93% 30.07 in 10.0 mi Calm Calm - N/A   Clear
2:08 AM 42.8 °F 41.0 °F 93% 30.07 in 10.0 mi Calm Calm - N/A   Clear
2:28 AM 42.8 °F 41.0 °F 93% 30.07 in 1.5 mi Calm Calm - N/A   Mist
2:48 AM 42.8 °F 41.0 °F 93% 30.07 in 7.0 mi Calm Calm - N/A   Clear
3:08 AM 42.8 °F 41.0 °F 93% 30.08 in 7.0 mi Calm Calm - N/A   Clear
3:28 AM 42.8 °F 41.0 °F 93% 30.08 in 3.0 mi Calm Calm - N/A   Clear
3:48 AM 41.0 °F 41.0 °F 100% 30.08 in 10.0 mi Calm Calm - N/A   Clear
4:08 AM 39.2 °F 37.4 °F 93% 30.09 in 10.0 mi Calm Calm - N/A   Clear
4:28 AM 39.2 °F 37.4 °F 93% 30.09 in 10.0 mi Calm Calm - N/A   Clear
4:48 AM 39.2 °F 37.4 °F 93% 30.09 in 10.0 mi Calm Calm - N/A   Clear
5:08 AM 39.2 °F 37.4 °F 93% 30.09 in 10.0 mi Calm Calm - N/A   Clear
5:28 AM 39.2 °F 37.4 °F 93% 30.09 in 7.0 mi Calm Calm - N/A   Clear
5:48 AM 37.4 °F 37.4 °F 100% 30.10 in 1.5 mi Calm Calm - N/A   Mist
6:08 AM 37.4 °F 37.4 °F 100% 30.10 in 1.5 mi Calm Calm - N/A   Mist
6:28 AM 39.2 °F 37.4 °F 93% 30.10 in 0.5 mi Calm Calm - N/A Fog Fog
6:48 AM 41.0 °F 41.0 °F 100% 30.11 in 10.0 mi Calm Calm - N/A   Clear
7:08 AM 44.6 °F 42.8 °F 93% 30.11 in 10.0 mi Calm Calm - N/A   Clear
7:28 AM 48.2 °F 46.4 °F 93% 30.11 in 10.0 mi Calm Calm - N/A   Clear
7:48 AM 51.8 °F 51.8 °F 100% 30.11 in 10.0 mi Calm Calm - N/A   Clear
8:08 AM 53.6 °F 51.8 °F 94% 30.11 in 10.0 mi Calm Calm - N/A   Clear
8:28 AM 57.2 °F 51.8 °F 82% 30.12 in 10.0 mi Calm Calm - N/A   Clear
8:48 AM 57.2 °F 51.8 °F 82% 30.12 in 10.0 mi Calm Calm - N/A   Clear
9:08 AM 60.8 °F 53.6 °F 77% 30.12 in 10.0 mi Calm Calm - N/A   Clear
9:28 AM 62.6 °F 51.8 °F 68% 30.12 in 10.0 mi SW 3.5 mph - N/A   Clear
9:48 AM 64.4 °F 51.8 °F 64% 30.12 in 10.0 mi WSW 4.6 mph - N/A   Clear
10:08 AM 64.4 °F 51.8 °F 64% 30.12 in 10.0 mi SSW 4.6 mph - N/A   Clear
10:28 AM 68.0 °F 51.8 °F 56% 30.12 in 10.0 mi SSW 5.8 mph - N/A   Clear
10:48 AM 68.0 °F 48.2 °F 49% 30.12 in 10.0 mi WSW 5.8 mph - N/A   Clear
11:08 AM 68.0 °F 46.4 °F 46% 30.12 in 10.0 mi WSW 5.8 mph - N/A   Clear
11:28 AM 69.8 °F 48.2 °F 46% 30.12 in 10.0 mi West 3.5 mph - N/A   Clear
11:48 AM 71.6 °F 50.0 °F 46% 30.12 in 10.0 mi South 3.5 mph - N/A   Clear
12:08 PM 71.6 °F 50.0 °F 46% 30.12 in 10.0 mi Calm Calm - N/A   Scattered Clouds
12:28 PM 71.6 °F 48.2 °F 43% 30.12 in 10.0 mi SSW 4.6 mph - N/A   Scattered Clouds
12:48 PM 71.6 °F 46.4 °F 41% 30.12 in 10.0 mi Calm Calm - N/A   Scattered Clouds
1:08 PM 71.6 °F 50.0 °F 46% 30.11 in 10.0 mi SSW 5.8 mph - N/A   Scattered Clouds
1:28 PM 71.6 °F 50.0 °F 46% 30.11 in 10.0 mi SW 4.6 mph - N/A   Clear
1:48 PM 71.6 °F 50.0 °F 46% 30.11 in 10.0 mi SSW 5.8 mph - N/A   Clear
2:08 PM 71.6 °F 51.8 °F 50% 30.11 in 10.0 mi SSW 4.6 mph - N/A   Clear
2:28 PM 71.6 °F 53.6 °F 53% 30.11 in 10.0 mi SW 6.9 mph - N/A   Scattered Clouds
2:48 PM 71.6 °F 51.8 °F 50% 30.11 in 10.0 mi SSE 4.6 mph - N/A   Scattered Clouds
3:08 PM 71.6 °F 51.8 °F 50% 30.11 in 10.0 mi SSW 4.6 mph - N/A   Scattered Clouds
3:28 PM 71.6 °F 50.0 °F 46% 30.10 in 10.0 mi SSW 8.1 mph - N/A   Scattered Clouds
3:48 PM 71.6 °F 50.0 °F 46% 30.10 in 10.0 mi SSW 5.8 mph - N/A   Mostly Cloudy
4:08 PM 73.4 °F 50.0 °F 44% 30.09 in 10.0 mi WSW 5.8 mph - N/A   Scattered Clouds
4:28 PM 71.6 °F 50.0 °F 46% 30.09 in 10.0 mi South 6.9 mph - N/A   Scattered Clouds
4:48 PM 71.6 °F 51.8 °F 50% 30.10 in 10.0 mi WSW 5.8 mph - N/A   Scattered Clouds
5:08 PM 71.6 °F 51.8 °F 50% 30.09 in 10.0 mi SW 4.6 mph - N/A   Scattered Clouds
5:28 PM 73.4 °F 51.8 °F 47% 30.09 in 10.0 mi SSW 4.6 mph - N/A   Clear
5:48 PM 71.6 °F 51.8 °F 50% 30.10 in 10.0 mi SSW 5.8 mph - N/A   Scattered Clouds
6:08 PM 71.6 °F 51.8 °F 50% 30.10 in 10.0 mi South 10.4 mph - N/A   Scattered Clouds
6:28 PM 71.6 °F 53.6 °F 53% 30.10 in 10.0 mi South 8.1 mph - N/A   Clear
6:48 PM 69.8 °F 53.6 °F 56% 30.10 in 10.0 mi SSW 3.5 mph - N/A   Clear
7:08 PM 69.8 °F 53.6 °F 56% 30.10 in 10.0 mi SSW 3.5 mph - N/A   Clear
7:28 PM 68.0 °F 53.6 °F 60% 30.10 in 10.0 mi SSW 3.5 mph - N/A   Clear
7:48 PM 68.0 °F 55.4 °F 64% 30.10 in 10.0 mi Calm Calm - N/A   Clear
8:08 PM 66.2 °F 53.6 °F 64% 30.10 in 10.0 mi Calm Calm - N/A   Scattered Clouds
8:28 PM 64.4 °F 53.6 °F 68% 30.10 in 10.0 mi SE 3.5 mph - N/A   Scattered Clouds
8:48 PM 62.6 °F 55.4 °F 77% 30.10 in 10.0 mi Calm Calm - N/A   Mostly Cloudy
9:08 PM 60.8 °F 55.4 °F 82% 30.10 in 10.0 mi Calm Calm - N/A   Mostly Cloudy
9:28 PM 59.0 °F 55.4 °F 88% 30.11 in 10.0 mi Calm Calm - N/A   Mostly Cloudy
9:48 PM 57.2 °F 55.4 °F 94% 30.11 in 10.0 mi Calm Calm - N/A   Scattered Clouds
10:08 PM 57.2 °F 53.6 °F 88% 30.11 in 10.0 mi Calm Calm - N/A   Scattered Clouds
10:28 PM 57.2 °F 55.4 °F 94% 30.11 in 10.0 mi Calm Calm - N/A   Scattered Clouds
10:48 PM 53.6 °F 53.6 °F 100% 30.11 in 10.0 mi Calm Calm - N/A   Mostly Cloudy
11:08 PM 53.6 °F 53.6 °F 100% 30.11 in 10.0 mi Calm Calm - N/A   Mostly Cloudy
11:28 PM 53.6 °F 51.8 °F 94% 30.11 in 10.0 mi Calm Calm - N/A   Clear
11:48 PM 51.8 °F 51.8 °F 100% 30.11 in 10.0 mi Calm Calm - N/A   Clear